Location: Rioux
(40.7500°S, 175.7500°E)
Time: 11:06:07
(UTC+00:00)

USA 229 DEB - Pass Details

Date: 12 June 2024
Orbit: 889 x 1323 km, 63.4° (Epoch: 20 July)

Event Time Altitude Azimuth Distance (km) Brightness Sun altitude
Exits shadow 16:51:40 77° 40° (NE) 978 3.4 -30.7°
Drops below altitude 10° 16:57:11 10° 33° (NNE) 2,589 6.2 -29.7°
Sets 16:59:37 0° 33° (NNE) 3,503 6.9 -29.2°
